Location: Düngen
(52.0952°N, 10.0219°E)
Time: 15:56:51
(UTC+00:00)

Cosmos 1241 Rocket - Pass Details

Date: 11 March 2026
Orbit: 941 x 1005 km, 65.8° (Epoch: 13 April)

Event Time Altitude Azimuth Distance (km) Brightness Sun altitude
Rises 19:11:59 0° 211° (SSW) 3,611 7.6 -18.2°
Reaches altitude 10° 19:14:31 10° 210° (SSW) 2,663 6.9 -18.6°
Maximum altitude 19:20:42 75° 127° (SE) 977 4.3 -19.5°
Drops below altitude 10° 19:26:54 10° 43° (NE) 2,667 6.6 -20.3°
Sets 19:29:27 0° 42° (NE) 3,616 7.3 -20.7°
